Ellicott, CO

10:37 PM MDT on March 22, 2017 (GMT -0600)
Ellicott

Weather History for KABH - November, 2013

Change the Weather History Date:

Monday, November 18, 2013

  Actual Average (KCOS) Record (KCOS)
Temperature  
Mean Temperature 35 °F -  
Max Temperature 55 °F 48 °F 76 °F (2008)
Min Temperature 15 °F 23 °F -5 °F (1903)
Degree Days  
Heating Degree Days 30    
Moisture  
Dew Point 9 °F    
Average Humidity 41    
Maximum Humidity 70    
Minimum Humidity 15    
Precipitation  
Precipitation 0.00 in - - ()
Sea Level Pressure  
Sea Level Pressure 30.20 in    
Wind  
Wind Speed 3 mph (ESE)    
Max Wind Speed 9 mph    
Max Gust Speed -    
Visibility 10 miles    
Events Rain    
Averages and records for this station are not official NWS values.
T = Trace of Precipitation, MM = Missing Value Source: NWS Daily Summary

Daily Weather History Graph

Daily Weather History Graph

Search for Another Location

Airport or City:

Trip Planner

Search our weather history database for the weather conditions in past years. The results will help you decide how hot, cold, wet, or windy it might be!

Date:

Astronomy

Nov. 18, 2013 Rise Set
Actual Time 6:43 AM MST 4:41 PM MST
Civil Twilight 6:14 AM MST 5:10 PM MST
Nautical Twilight 5:42 AM MST 5:42 PM MST
Astronomical Twilight 5:10 AM MST 6:13 PM MST
Moon 5:45 PM MST (11/18) 7:33 AM MST (11/18)
Length of Visible Light 10h 55m
Length of Day
9h 58m
Full, 99% of the Moon is Illuminated
Nov 18
Full
Nov 25
Last Quarter
Dec 2
New
Dec 9
First Quarter
Dec 17
Full

Hourly Weather History & Observations

Time (MST) Temp. Windchill Dew Point Humidity Pressure Visibility Wind Dir Wind Speed Gust Speed Precip Events Conditions
12:56 AM 23.0 °F - 9.0 °F 55% 30.20 in 10.0 mi Calm Calm - N/A   Clear
1:56 AM 18.0 °F - 8.1 °F 65% 30.20 in 10.0 mi Calm Calm - 0.00 in   Clear
2:56 AM 15.1 °F 9.4 °F 7.0 °F 70% 30.23 in - NE 3.5 mph - 0.00 in   Clear
3:56 AM 18.0 °F 12.7 °F 7.0 °F 62% 30.22 in 10.0 mi NE 3.5 mph - 0.00 in   Clear
4:56 AM 18.0 °F 7.7 °F 8.1 °F 65% 30.24 in 10.0 mi ENE 8.1 mph - 0.00 in   Clear
5:56 AM 19.0 °F 13.9 °F 7.0 °F 59% 30.26 in - ESE 3.5 mph - 0.00 in   Clear
6:56 AM 18.0 °F 11.1 °F 8.1 °F 65% 30.30 in 10.0 mi East 4.6 mph - 0.00 in   Clear
7:56 AM 28.9 °F - 12.9 °F 51% 30.28 in 10.0 mi Calm Calm - 0.00 in   Clear
8:56 AM 36.0 °F 32.1 °F 12.0 °F 37% 30.25 in 10.0 mi NNW 4.6 mph - 0.00 in Rain Light Rain
9:56 AM 42.1 °F - 12.0 °F 29% 30.26 in 10.0 mi Calm Calm - 0.00 in Rain Light Rain
10:56 AM 50.0 °F - 12.0 °F 22% 30.21 in 10.0 mi Calm Calm - 0.00 in Rain Light Rain
11:56 AM 51.1 °F - 12.9 °F 22% 30.20 in 10.0 mi Calm Calm - 0.00 in Rain Light Rain
12:56 PM 54.0 °F - 12.0 °F 19% 30.15 in 10.0 mi SW 6.9 mph - 0.00 in Rain Light Rain
1:56 PM 55.0 °F - 10.0 °F 17% 30.16 in 10.0 mi SSE 5.8 mph - 0.00 in Rain Light Rain
2:56 PM 55.0 °F - 8.1 °F 15% 30.16 in 10.0 mi SSW 6.9 mph - 0.00 in   Clear
3:56 PM 52.0 °F - 8.1 °F 17% 30.16 in 10.0 mi South 5.8 mph - N/A   Clear
4:56 PM 39.0 °F 32.8 °F 10.9 °F 32% 30.22 in 10.0 mi South 9.2 mph - 0.00 in   Clear
5:56 PM 32.0 °F 27.5 °F 9.0 °F 38% 30.24 in 10.0 mi SSE 4.6 mph - 0.00 in   Clear
6:56 PM 33.1 °F 27.7 °F 10.0 °F 38% 30.24 in 10.0 mi East 5.8 mph - 0.00 in Rain Light Rain
7:56 PM 26.1 °F - 8.1 °F 47% 30.22 in 10.0 mi Calm Calm - 0.00 in   Clear
8:56 PM 33.1 °F - 9.0 °F 37% 30.15 in 10.0 mi Calm Calm - 0.00 in   Clear
9:56 PM 28.9 °F - 9.0 °F 43% 30.14 in 10.0 mi Calm Calm - 0.00 in   Clear
10:56 PM 28.9 °F - 8.1 °F 41% 30.09 in 10.0 mi Calm Calm - 0.00 in   Clear
11:56 PM 28.0 °F - 9.0 °F 45% 30.07 in 10.0 mi Calm Calm - 0.00 in   Clear